Back to catalog

STARLINK-37940

AliveCommunicationsSSO
NORAD 69690·PAYLOAD·🇺🇸 United States

Launched Jun 25, 2026 from Vandenberg Space Force Base

Loading…

Next Passes (next 24 hours)

TLE

FreshSource: CelesTrak SupGP

Epoch: Sep 15, 2026, 03:56 UTC

1 69690C 26145P   26258.16437500 -.00052370  00000+0 -16256-2 0  2585
2 69690  97.2844 104.9238 0001886  91.6714  16.4907 15.33467718    17

Track STARLINK-37940 in real time with AllMySat

Download on the App Store